Back to catalog

THOR ABLESTAR DEB

AliveLEO
NORAD 335·DEBRIS·🇺🇸 United States

Launched Jun 29, 1961 from Cape Canaveral Space Force Station

Loading…

Next Passes (next 24 hours)

TLE

FreshSource: Space-Track

Epoch: Sep 6, 2026, 02:15 UTC

1 00335U 61015DM  26249.09399962  .00000284  00000-0  16153-3 0  9997
2 00335  66.8381 281.5744 0031041 116.4090 244.0197 14.23079662338827

Track THOR ABLESTAR DEB in real time with AllMySat

Download on the App Store